Tracking 31027 objects as of 18-Jul-2025
HD Live streaming from Space Station
objects crossing your sky now

OV3-3

Track OV3-3 now!
10-day predictions
OV3-3 is classified as:


NORAD ID: 2389
Int'l Code: 1966-070A
Perigee: 343.0 km
Apogee: 1,920.5 km
Inclination: 81.3 °
Period: 107.8 minutes
Semi major axis: 7502 km
RCS: 0.7052 m2 (medium)
Launch date: August 4, 1966
Source: United States (US)
Launch site: AIR FORCE WESTERN TEST RANGE (AFWTR)
Your satellite tracking list
Your tracking list is empty




NASA's NSSDC Master Catalog

Two Line Element Set (TLE):
1 02389U 66070A   25199.57433138  .00005807  00000-0  27431-3 0  9991
2 02389  81.3285 263.0920 1051279 297.0167  52.7440 13.35902972554276
Source of the keplerian elements: AFSPC